QPF
0.00 0.00 0.00 0.00 0.00 0.00 0.00 0.00 0.00 0.00 0.00 0.00 0.00 0.00 0.00 0.01 0.00 0.00 0.01 0.01 0.00 0.01 0.04 0.03 0.04 0.12 0.14 0.03 0.05 0.06 0.03 0.04 0.05 0.03 0.01 0.01 0.01 0.00 0.00 0.00 0.00 0.00 0.00
0.00 0.00 0.00 0.00 0.00 0.00 0.00 0.00 0.00 0.00 0.00 0.00 0.00 0.00 0.00 0.00 0.00 0.00 0.00 0.00 0.00 0.00 0.00 0.02 0.05 0.17 0.21 0.13 0.04 0.05 0.03 0.04 0.12 0.11 0.08 0.03 0.01 0.01 0.01 0.00 0.00 0.00 0.00
0.00 0.00 0.00 0.00 0.00 0.00 0.00 0.00 0.00 0.00 0.00 0.00 0.00 0.00 0.00 0.00 0.00 0.00 0.00 0.00 0.00 0.00 0.00 0.01 0.03 0.11 0.40 0.61 0.27 0.35 0.24 0.25 0.26 0.22 0.14 0.09 0.05 0.02 0.01 0.02 0.02 0.01 0.00
0.00 0.00 0.00 0.00 0.00 0.00 0.00 0.00 0.00 0.00 0.00 0.00 0.00 0.00 0.00 0.00 0.00 0.00 0.00 0.00 0.00 0.00 0.00 0.00 0.00 0.02 0.04 0.25 0.34 0.41 0.25 0.15 0.18 0.17 0.07 0.04 0.04 0.05 0.06 0.07 0.05 0.04 0.01
0.00 0.00 0.00 0.00 0.00 0.00 0.00 0.00 0.00 0.00 0.00 0.00 0.00 0.00 0.00 0.00 0.00 0.00 0.00 0.00 0.00 0.00 0.00 0.00 0.00 0.00 0.00 0.01 0.06 0.06 0.03 0.02 0.02 0.04 0.02 0.01 0.01 0.01 0.01 0.01 0.02 0.02 0.01
0.00 0.00 0.00 0.00 0.00 0.00 0.00 0.00 0.00 0.00 0.00 0.00 0.00 0.00 0.00 0.00 0.00 0.00 0.00 0.00 0.00 0.00 0.00 0.00 0.00 0.00 0.00 0.00 0.01 0.04 0.03 0.02 0.02 0.01 0.01 0.01 0.01 0.01 0.02 0.01 0.01 0.01 0.01
0.00 0.00 0.00 0.00 0.00 0.00 0.00 0.00 0.00 0.00 0.00 0.00 0.00 0.00 0.00 0.00 0.00 0.00 0.00 0.00 0.00 0.00 0.00 0.00 0.00 0.00 0.00 0.00 0.00 0.01 0.03 0.02 0.01 0.01 0.00 0.01 0.01 0.01 0.01 0.01 0.02 0.01 0.00
0.00 0.00 0.00 0.00 0.00 0.00 0.00 0.00 0.00 0.00 0.00 0.00 0.00 0.00 0.00 0.00 0.00 0.00 0.00 0.00 0.00 0.00 0.00 0.00 0.00 0.00 0.00 0.00 0.00 0.00 0.00 0.01 0.01 0.00 0.00 0.00 0.00 0.01 0.01 0.00 0.00 0.00 0.00
0.00 0.00 0.00 0.00 0.00 0.00 0.00 0.00 0.00 0.00 0.00 0.00 0.00 0.00 0.00 0.00 0.00 0.00 0.00 0.00 0.00 0.00 0.00 0.00 0.00 0.00 0.00 0.00 0.00 0.00 0.00 0.00 0.01 0.00 0.00 0.00 0.00 0.00 0.00 0.00 0.00 0.00 0.00
0.00 0.00 0.00 0.00 0.00 0.00 0.00 0.00 0.00 0.00 0.00 0.00 0.00 0.00 0.00 0.00 0.00 0.00 0.00 0.00 0.00 0.00 0.00 0.00 0.00 0.00 0.00 0.00 0.00 0.00 0.00 0.00 0.00 0.00 0.00 0.00 0.00 0.00 0.00 0.00 0.00 0.00 0.00
0.00 0.00 0.00 0.00 0.00 0.00 0.00 0.00 0.00 0.00 0.00 0.00 0.00 0.00 0.00 0.00 0.00 0.00 0.00 0.00 0.00 0.00 0.00 0.00 0.00 0.00 0.00 0.00 0.00 0.00 0.00 0.00 0.00 0.00 0.00 0.00 0.00 0.00 0.00 0.00 0.00 0.00 0.00
0.00 0.00 0.00 0.00 0.00 0.00 0.00 0.00 0.00 0.00 0.00 0.00 0.00 0.00 0.00 0.00 0.00 0.00 0.00 0.00 0.00 0.00 0.00 0.00 0.00 0.00 0.00 0.00 0.00 0.00 0.00 0.00 0.00 0.00 0.00 0.00 0.00 0.00 0.00 0.00 0.00 0.00 0.00
0.00 0.00 0.00 0.00 0.00 0.00 0.00 0.00 0.00 0.00 0.00 0.00 0.00 0.00 0.00 0.00 0.00 0.00 0.00 0.00 0.00 0.00 0.00 0.00 0.00 0.00 0.00 0.00 0.00 0.00 0.00 0.00 0.00 0.00 0.00 0.00 0.00 0.00 0.00 0.00 0.00 0.00 0.00
0.00 0.00 0.00 0.00 0.00 0.00 0.00 0.00 0.00 0.00 0.00 0.00 0.00 0.00 0.00 0.00 0.00 0.00 0.00 0.00 0.00 0.00 0.00 0.00 0.00 0.00 0.00 0.00 0.00 0.00 0.00 0.00 0.00 0.00 0.00 0.00 0.00 0.00 0.00 0.00 0.00 0.00 0.00
0.00 0.00 0.00 0.00 0.00 0.00 0.00 0.00 0.00 0.00 0.00 0.00 0.00 0.00 0.00 0.00 0.00 0.00 0.00 0.00 0.00 0.00 0.00 0.00 0.00 0.00 0.00 0.00 0.00 0.00 0.00 0.00 0.00 0.00 0.00 0.00 0.00 0.00 0.00 0.00 0.00 0.00 0.00
0.00 0.00 0.00 0.00 0.00 0.00 0.00 0.00 0.00 0.00 0.00 0.00 0.00 0.00 0.00 0.00 0.00 0.00 0.00 0.00 0.00 0.00 0.00 0.00 0.00 0.00 0.00 0.00 0.00 0.00 0.00 0.00 0.00 0.00 0.00 0.00 0.00 0.00 0.00 0.00 0.00 0.00 0.00
0.01 0.01 0.00 0.00 0.00 0.00 0.00 0.00 0.00 0.00 0.00 0.00 0.00 0.00 0.00 0.00 0.00 0.00 0.00 0.00 0.00 0.00 0.00 0.00 0.00 0.00 0.00 0.00 0.00 0.00 0.00 0.00 0.00 0.00 0.00 0.00 0.00 0.00 0.00 0.00 0.00 0.00 0.00
0.03 0.02 0.01 0.00 0.00 0.00 0.00 0.00 0.00 0.00 0.00 0.00 0.00 0.00 0.00 0.00 0.00 0.00 0.00 0.00 0.00 0.00 0.00 0.00 0.00 0.00 0.00 0.00 0.00 0.00 0.00 0.00 0.00 0.00 0.00 0.00 0.00 0.00 0.00 0.00 0.00 0.00 0.00
0.03 0.02 0.01 0.00 0.00 0.00 0.00 0.00 0.00 0.00 0.00 0.00 0.00 0.00 0.00 0.00 0.00 0.00 0.00 0.00 0.00 0.00 0.00 0.00 0.00 0.00 0.00 0.00 0.00 0.00 0.00 0.00 0.00 0.00 0.00 0.00 0.00 0.00 0.00 0.00 0.00 0.00 0.00
0.02 0.01 0.00 0.00 0.00 0.00 0.00 0.00 0.00 0.00 0.00 0.00 0.00 0.00 0.00 0.00 0.00 0.00 0.00 0.00 0.00 0.00 0.00 0.00 0.00 0.00 0.00 0.00 0.00 0.00 0.00 0.00 0.00 0.00 0.00 0.00 0.00 0.00 0.00 0.00 0.00 0.00 0.00
0.01 0.01 0.00 0.00 0.00 0.00 0.00 0.00 0.00 0.00 0.00 0.00 0.00 0.00 0.00 0.00 0.00 0.00 0.00 0.00 0.00 0.00 0.00 0.00 0.00 0.00 0.00 0.00 0.00 0.00 0.00 0.00 0.00 0.00 0.00 0.00 0.00 0.00 0.00 0.00 0.00 0.00 0.00
0.00 0.00 0.00 0.00 0.00 0.00 0.00 0.00 0.00 0.00 0.00 0.00 0.00 0.00 0.00 0.00 0.00 0.00 0.00 0.00 0.00 0.00 0.00 0.00 0.00 0.00 0.00 0.00 0.00 0.00 0.00 0.00 0.00 0.00 0.00 0.00 0.00 0.00 0.00 0.00 0.00 0.00 0.00
0.00 0.00 0.00 0.00 0.00 0.00 0.00 0.00 0.00 0.00 0.00 0.00 0.00 0.00 0.00 0.00 0.00 0.00 0.00 0.00 0.00 0.00 0.00 0.00 0.00 0.00 0.00 0.00 0.00 0.00 0.00 0.00 0.00 0.00 0.00 0.00 0.00 0.00 0.00 0.00 0.00 0.00 0.00
0.00 0.00 0.00 0.00 0.00 0.00 0.00 0.00 0.00 0.00 0.00 0.00 0.00 0.00 0.00 0.00 0.00 0.00 0.00 0.00 0.00 0.00 0.00 0.00 0.00 0.00 0.00 0.00 0.00 0.00 0.00 0.00 0.00 0.00 0.00 0.00 0.00 0.00 0.00 0.00 0.00 0.00 0.00
0.00 0.00 0.00 0.00 0.00 0.00 0.00 0.00 0.00 0.00 0.00 0.00 0.00 0.00 0.00 0.00 0.00 0.00 0.00 0.00 0.00 0.00 0.00 0.00 0.00 0.00 0.00 0.00 0.00 0.00 0.00 0.00 0.00 0.00 0.00 0.00 0.00 0.00 0.00 0.00 0.00 0.00 0.00
0.00 0.00 0.00 0.00 0.00 0.00 0.00 0.00 0.00 0.00 0.00 0.00 0.00 0.00 0.00 0.00 0.00 0.00 0.00 0.00 0.00 0.00 0.00 0.00 0.00 0.00 0.00 0.00 0.00 0.00 0.00 0.00 0.00 0.00 0.00 0.00 0.00 0.00 0.00 0.00 0.00 0.00 0.00
MSLP
1023.16 1023.69 1024.26 1024.88 1025.61 1025.97 1026.57 1027.17 1027.66 1028.06 1028.32 1028.59 1028.80 1028.81 1029.31 1029.46 1029.50 1029.43 1029.33 1028.59 1027.91 1027.34 1026.59 1026.32 1026.43 1026.47 1026.53 1026.74 1026.93 1027.12 1027.38 1027.58 1027.78 1027.82 1028.01 1027.90 1027.96 1027.98 1027.99 1028.06 1028.07 1028.14 1028.21
1023.20 1023.74 1024.53 1025.33 1026.00 1026.39 1027.06 1027.53 1028.06 1028.46 1029.02 1029.28 1029.51 1029.90 1029.99 1030.13 1030.02 1030.06 1030.17 1029.96 1029.43 1028.68 1027.86 1027.39 1026.91 1026.95 1026.89 1027.05 1027.25 1027.46 1027.76 1028.04 1028.30 1028.39 1028.45 1028.33 1028.33 1028.35 1028.26 1028.30 1028.36 1028.43 1028.33
1023.44 1023.93 1024.66 1025.58 1026.36 1026.85 1027.31 1027.88 1028.54 1029.01 1029.51 1030.11 1030.39 1030.63 1030.66 1030.85 1030.87 1031.05 1030.92 1030.84 1030.66 1030.20 1029.53 1028.80 1027.99 1027.66 1026.83 1027.19 1027.42 1027.97 1028.13 1028.40 1028.70 1028.81 1028.81 1028.83 1028.71 1028.62 1028.59 1028.57 1028.59 1028.60 1028.66
1023.98 1024.34 1024.83 1025.69 1026.42 1027.01 1027.52 1028.23 1028.88 1029.55 1030.22 1030.70 1031.13 1031.42 1031.49 1031.49 1031.63 1031.54 1031.48 1031.30 1031.28 1031.28 1030.92 1030.27 1029.72 1029.15 1028.41 1028.38 1028.11 1028.38 1028.60 1028.84 1029.01 1029.14 1029.21 1029.22 1029.19 1029.11 1029.00 1028.97 1029.04 1029.12 1029.14
1024.53 1025.05 1025.33 1026.08 1026.40 1027.04 1027.78 1028.32 1029.25 1029.53 1030.44 1031.20 1031.61 1032.08 1032.37 1032.59 1032.66 1032.38 1032.09 1032.02 1032.00 1031.92 1031.75 1031.52 1031.13 1030.56 1030.19 1029.60 1029.24 1029.33 1029.40 1029.59 1029.80 1029.96 1029.94 1030.18 1030.11 1029.91 1029.85 1029.79 1029.74 1029.92 1029.86
1025.16 1025.70 1026.30 1026.46 1026.77 1027.45 1028.23 1028.76 1029.33 1030.31 1030.64 1031.21 1032.01 1032.73 1033.20 1033.57 1033.52 1033.47 1033.31 1033.02 1032.94 1032.88 1032.71 1032.42 1032.20 1032.06 1031.84 1031.19 1030.56 1030.23 1030.19 1030.47 1030.46 1030.73 1030.71 1030.85 1030.87 1030.77 1030.80 1030.67 1030.73 1030.72 1030.70
1025.57 1026.11 1026.74 1027.32 1027.42 1027.45 1028.55 1028.98 1029.81 1030.76 1031.54 1032.00 1032.02 1033.34 1033.78 1033.81 1034.04 1034.38 1034.23 1034.07 1033.89 1033.76 1033.53 1033.42 1033.33 1033.12 1032.96 1032.66 1032.02 1031.41 1031.16 1031.32 1031.32 1031.53 1031.65 1031.58 1031.67 1031.53 1031.46 1031.54 1031.47 1031.51 1031.45
1025.73 1026.45 1027.10 1027.85 1028.20 1028.03 1028.77 1029.36 1029.58 1030.94 1031.97 1032.44 1032.67 1033.40 1034.39 1034.81 1034.93 1035.12 1035.09 1034.89 1034.97 1034.69 1034.50 1034.43 1034.28 1034.15 1034.00 1033.80 1033.31 1032.73 1032.08 1031.89 1031.97 1032.21 1032.45 1032.43 1032.40 1032.36 1032.29 1032.27 1032.16 1032.20 1032.08
1025.93 1026.75 1027.54 1027.81 1028.65 1028.73 1028.86 1029.46 1029.98 1030.32 1031.76 1032.78 1032.54 1033.01 1034.16 1034.93 1035.67 1036.04 1036.02 1035.93 1035.77 1035.63 1035.44 1035.24 1035.14 1035.02 1034.84 1034.67 1034.22 1033.71 1033.08 1032.89 1032.64 1032.93 1033.14 1033.27 1033.11 1032.97 1032.99 1032.83 1032.81 1032.98 1032.59
1026.36 1027.18 1027.64 1028.32 1028.81 1029.46 1029.67 1029.82 1029.98 1030.52 1030.88 1032.18 1032.88 1032.89 1032.87 1033.22 1034.83 1036.33 1036.48 1036.37 1036.07 1036.13 1036.15 1035.94 1035.88 1035.85 1035.73 1035.52 1035.12 1034.54 1033.92 1033.59 1033.50 1033.52 1033.78 1033.85 1033.70 1033.57 1033.54 1033.40 1033.44 1033.36 1033.19
1026.51 1027.65 1027.97 1028.60 1029.52 1029.68 1029.85 1030.38 1030.58 1030.88 1031.10 1031.84 1032.25 1032.90 1033.06 1033.34 1033.70 1034.64 1036.28 1036.76 1036.69 1036.88 1036.79 1036.53 1036.51 1036.45 1036.33 1036.15 1035.91 1035.55 1034.99 1034.53 1034.19 1034.14 1034.36 1034.52 1034.45 1034.28 1034.06 1034.07 1034.11 1033.99 1033.94
1027.33 1028.12 1027.87 1028.99 1029.75 1029.99 1030.07 1030.75 1031.11 1031.18 1031.47 1031.83 1032.12 1032.26 1032.68 1033.04 1033.48 1034.15 1035.43 1036.55 1036.93 1037.43 1037.40 1037.10 1037.10 1037.12 1036.98 1036.81 1036.54 1036.26 1035.92 1035.63 1035.28 1034.98 1035.04 1035.27 1035.30 1035.08 1034.82 1034.69 1034.63 1034.57 1034.45
1027.68 1027.83 1028.33 1029.13 1029.74 1030.31 1030.41 1031.10 1031.44 1031.67 1032.03 1032.34 1032.74 1032.69 1032.76 1032.93 1033.13 1033.56 1034.30 1035.67 1036.76 1037.32 1037.55 1037.58 1037.61 1037.49 1037.36 1037.33 1037.10 1036.96 1036.67 1036.47 1036.22 1036.02 1035.89 1035.99 1035.96 1035.80 1035.62 1035.39 1035.22 1035.09 1034.98
1027.62 1028.47 1028.58 1029.10 1029.70 1030.33 1030.72 1031.19 1031.79 1032.00 1032.37 1032.83 1033.12 1033.40 1033.46 1033.39 1033.25 1033.57 1033.95 1034.94 1036.69 1037.15 1037.56 1037.70 1037.83 1037.93 1037.82 1037.73 1037.48 1037.42 1037.38 1037.03 1036.89 1036.72 1036.61 1036.57 1036.45 1036.31 1036.14 1035.92 1035.71 1035.55 1035.43
1027.91 1028.42 1028.82 1029.27 1029.81 1030.41 1030.89 1031.39 1031.93 1032.32 1032.66 1033.28 1033.62 1033.79 1033.93 1033.90 1033.92 1033.97 1034.17 1034.55 1035.51 1037.04 1037.93 1038.05 1038.14 1038.08 1038.01 1037.99 1037.86 1037.95 1037.84 1037.36 1037.15 1037.01 1036.97 1036.92 1036.79 1036.62 1036.47 1036.25 1036.02 1035.85 1035.77
1028.13 1028.62 1029.28 1029.48 1030.16 1030.75 1031.21 1031.83 1032.53 1032.90 1033.19 1033.81 1034.08 1034.28 1034.45 1034.62 1034.57 1034.65 1034.96 1035.19 1035.46 1035.98 1037.61 1038.09 1038.21 1038.21 1038.08 1037.99 1038.01 1038.15 1038.06 1037.89 1037.56 1037.37 1037.30 1037.22 1037.04 1036.87 1036.68 1036.43 1036.29 1036.22 1036.16
1028.51 1028.92 1029.47 1030.11 1030.54 1031.18 1031.75 1032.28 1032.83 1033.12 1033.71 1034.24 1034.66 1034.81 1035.05 1035.16 1035.52 1035.62 1035.67 1035.73 1035.89 1036.08 1037.28 1038.02 1038.05 1038.16 1038.37 1038.47 1038.38 1038.25 1038.14 1038.18 1038.13 1037.74 1037.56 1037.40 1037.28 1037.12 1036.90 1036.73 1036.64 1036.60 1036.52
1028.87 1029.88 1029.95 1030.68 1031.29 1031.62 1032.16 1032.62 1033.15 1033.76 1034.17 1034.63 1034.92 1035.12 1035.34 1035.36 1035.93 1036.11 1036.38 1036.48 1036.35 1036.41 1037.04 1038.04 1038.38 1038.51 1038.52 1038.56 1038.55 1038.51 1038.25 1038.00 1038.04 1037.85 1037.59 1037.44 1037.31 1037.24 1037.11 1037.06 1036.92 1036.78 1036.85
1029.45 1030.37 1030.78 1031.08 1031.92 1032.19 1032.64 1033.23 1033.76 1034.32 1034.73 1034.99 1035.23 1035.46 1035.75 1035.99 1036.38 1036.55 1036.71 1036.84 1036.86 1036.88 1037.07 1037.78 1038.41 1038.57 1038.75 1038.74 1038.74 1038.69 1038.50 1038.47 1038.14 1037.81 1037.58 1037.52 1037.46 1037.33 1037.23 1037.09 1037.00 1036.96 1036.90
1030.64 1030.34 1031.21 1031.45 1032.36 1032.72 1033.10 1033.64 1034.26 1034.72 1035.08 1035.47 1035.73 1035.89 1036.11 1036.38 1036.59 1036.79 1037.03 1037.21 1037.30 1037.47 1037.69 1038.07 1038.44 1038.66 1038.74 1038.76 1038.94 1038.96 1038.86 1038.73 1038.50 1038.05 1037.83 1037.72 1037.62 1037.50 1037.34 1037.12 1037.00 1036.86 1036.82
1030.97 1031.08 1031.61 1032.08 1032.81 1033.26 1033.45 1034.21 1034.61 1035.09 1035.53 1035.96 1036.23 1036.42 1036.52 1036.39 1036.32 1036.74 1037.28 1037.62 1037.72 1037.92 1038.19 1038.48 1038.74 1038.90 1039.02 1039.03 1039.09 1039.07 1039.03 1038.93 1038.60 1038.50 1038.41 1038.24 1038.12 1038.02 1037.75 1037.44 1037.16 1036.87 1036.70
1031.29 1031.56 1032.17 1032.67 1033.32 1033.36 1033.46 1033.99 1034.71 1035.48 1035.91 1036.32 1036.58 1036.76 1036.73 1036.70 1036.62 1036.72 1036.97 1037.29 1037.82 1038.19 1038.53 1038.83 1039.11 1039.25 1039.35 1039.31 1039.28 1039.21 1039.18 1039.18 1039.05 1038.74 1038.71 1038.47 1038.20 1038.01 1037.73 1037.41 1036.97 1036.58 1036.42
1031.56 1032.21 1032.94 1033.35 1033.60 1033.59 1033.53 1034.02 1034.72 1035.60 1036.06 1036.54 1036.85 1037.00 1036.93 1036.97 1037.34 1037.59 1037.43 1037.60 1037.79 1037.83 1038.20 1038.77 1039.27 1039.38 1039.41 1039.29 1039.34 1039.20 1039.26 1039.31 1039.25 1038.87 1038.81 1038.41 1038.16 1037.96 1037.49 1037.11 1036.82 1036.51 1036.10
1032.21 1032.80 1033.37 1033.70 1033.87 1033.70 1033.73 1034.28 1034.99 1035.83 1036.32 1036.67 1036.92 1037.13 1037.35 1037.55 1037.62 1037.84 1038.07 1038.28 1038.45 1038.56 1038.58 1038.49 1038.99 1039.15 1039.20 1039.07 1039.10 1038.93 1038.99 1039.08 1039.03 1038.81 1038.74 1038.50 1037.88 1037.67 1037.25 1036.95 1036.54 1036.32 1036.12
1032.73 1033.23 1033.62 1034.02 1034.25 1034.37 1033.99 1034.53 1035.40 1036.14 1036.50 1036.87 1037.00 1037.18 1037.38 1037.72 1037.45 1037.53 1038.27 1038.46 1038.61 1038.64 1038.39 1038.27 1038.13 1038.25 1038.20 1038.17 1038.22 1038.82 1038.94 1039.10 1038.90 1038.63 1038.33 1038.31 1037.79 1037.48 1037.13 1036.79 1036.34 1036.01 1035.83
1032.97 1033.51 1034.03 1034.32 1034.04 1034.80 1034.13 1034.70 1035.52 1036.25 1036.68 1036.93 1037.19 1037.21 1036.99 1037.60 1037.35 1037.51 1038.24 1038.59 1038.80 1038.71 1038.71 1038.61 1038.56 1038.53 1038.44 1038.48 1038.21 1038.37 1038.93 1038.94 1038.71 1038.51 1038.00 1038.13 1037.84 1037.69 1037.12 1036.39 1036.26 1036.16 1036.08
Thickness
5644 5642 5639 5636 5633 5631 5629 5627 5625 5624 5624 5625 5624 5626 5624 5624 5625 5629 5631 5636 5641 5645 5653 5655 5656 5656 5656 5654 5652 5652 5650 5648 5647 5648 5645 5647 5647 5647 5649 5649 5649 5649 5649
5639 5638 5635 5630 5627 5626 5622 5621 5619 5618 5615 5615 5615 5614 5616 5616 5619 5621 5622 5625 5628 5634 5640 5644 5650 5650 5651 5650 5648 5647 5645 5642 5640 5639 5639 5639 5640 5641 5642 5642 5642 5642 5643
5632 5633 5630 5624 5622 5620 5617 5615 5612 5610 5609 5606 5607 5606 5607 5607 5610 5610 5613 5615 5618 5621 5626 5632 5638 5642 5650 5647 5642 5640 5638 5635 5633 5633 5632 5632 5635 5636 5635 5637 5637 5637 5636
5624 5625 5625 5620 5616 5614 5612 5608 5605 5602 5599 5598 5597 5597 5598 5598 5599 5601 5604 5608 5610 5612 5615 5619 5623 5627 5634 5635 5635 5635 5633 5630 5629 5627 5623 5625 5627 5628 5629 5630 5630 5629 5628
5613 5614 5615 5612 5610 5608 5604 5603 5598 5598 5593 5589 5588 5587 5587 5588 5590 5592 5596 5598 5600 5602 5605 5607 5610 5614 5617 5620 5621 5622 5622 5621 5620 5619 5618 5614 5617 5619 5620 5621 5620 5619 5621
5603 5603 5602 5604 5602 5599 5595 5593 5592 5586 5585 5583 5580 5577 5576 5576 5580 5582 5586 5588 5589 5591 5592 5595 5598 5598 5599 5604 5607 5608 5610 5609 5611 5609 5608 5604 5605 5608 5608 5609 5608 5609 5610
5593 5593 5592 5590 5591 5593 5587 5585 5582 5577 5573 5573 5575 5567 5565 5567 5568 5569 5572 5575 5577 5580 5583 5584 5585 5588 5589 5590 5593 5595 5597 5597 5598 5596 5596 5594 5593 5596 5597 5598 5599 5598 5598
5585 5584 5583 5580 5579 5581 5579 5577 5577 5569 5564 5565 5563 5559 5553 5553 5554 5555 5558 5560 5564 5567 5569 5570 5572 5574 5576 5577 5579 5581 5584 5586 5588 5586 5582 5582 5582 5584 5584 5583 5586 5587 5588
5575 5574 5573 5574 5570 5569 5572 5570 5568 5568 5559 5554 5558 5557 5545 5547 5538 5541 5543 5545 5549 5553 5555 5557 5558 5560 5562 5563 5566 5568 5570 5571 5576 5576 5572 5568 5569 5570 5570 5572 5574 5574 5578
5563 5561 5563 5562 5561 5557 5558 5560 5560 5559 5558 5550 5547 5548 5551 5551 5540 5528 5530 5533 5536 5538 5541 5543 5545 5545 5547 5548 5550 5552 5556 5557 5559 5560 5560 5559 5557 5557 5558 5560 5558 5560 5565
5553 5548 5550 5551 5547 5548 5547 5545 5548 5548 5549 5544 5543 5540 5539 5539 5539 5532 5522 5520 5523 5523 5526 5529 5531 5532 5533 5534 5535 5536 5539 5541 5543 5544 5545 5545 5545 5545 5547 5547 5546 5547 5547
5536 5534 5540 5537 5536 5536 5539 5533 5532 5534 5535 5534 5534 5534 5533 5534 5531 5528 5517 5512 5511 5510 5511 5514 5515 5516 5517 5519 5520 5521 5523 5523 5524 5526 5527 5527 5528 5529 5529 5531 5531 5532 5533
5524 5526 5526 5523 5525 5525 5527 5522 5520 5520 5519 5520 5520 5521 5523 5523 5523 5521 5517 5508 5501 5499 5498 5500 5499 5500 5501 5501 5502 5504 5506 5507 5507 5507 5508 5508 5510 5512 5513 5513 5514 5516 5517
5514 5511 5513 5513 5513 5513 5514 5513 5510 5509 5506 5504 5506 5507 5507 5508 5511 5510 5508 5503 5490 5488 5486 5486 5485 5485 5484 5485 5486 5488 5489 5490 5490 5491 5491 5491 5492 5493 5495 5496 5498 5499 5500
5502 5502 5503 5502 5500 5499 5500 5499 5499 5497 5495 5492 5490 5490 5491 5493 5493 5494 5493 5493 5488 5476 5469 5468 5468 5471 5471 5470 5470 5470 5471 5473 5473 5474 5474 5474 5475 5476 5477 5478 5480 5481 5482
5490 5489 5487 5488 5486 5484 5483 5482 5481 5481 5480 5477 5475 5473 5473 5474 5476 5476 5476 5475 5474 5472 5458 5455 5455 5456 5456 5455 5454 5454 5454 5454 5455 5456 5456 5456 5457 5459 5460 5462 5462 5462 5462
5476 5475 5473 5471 5470 5467 5466 5465 5464 5465 5463 5460 5458 5458 5456 5456 5455 5456 5458 5457 5455 5454 5445 5441 5442 5441 5438 5438 5438 5439 5439 5438 5437 5438 5438 5439 5439 5440 5442 5443 5443 5443 5443
5462 5456 5457 5453 5450 5451 5450 5450 5447 5445 5444 5442 5441 5442 5441 5440 5438 5438 5436 5436 5437 5437 5432 5426 5423 5422 5422 5421 5421 5421 5422 5422 5421 5420 5420 5421 5421 5422 5422 5423 5423 5424 5424
5445 5440 5438 5438 5434 5435 5434 5431 5429 5427 5425 5425 5424 5423 5422 5421 5419 5419 5419 5418 5418 5419 5417 5412 5406 5405 5404 5404 5403 5403 5403 5402 5402 5403 5403 5403 5402 5402 5403 5404 5404 5404 5405
5422 5428 5421 5422 5417 5417 5417 5415 5412 5411 5410 5408 5407 5407 5406 5405 5403 5402 5400 5399 5399 5397 5395 5392 5390 5388 5387 5386 5385 5384 5384 5384 5385 5385 5385 5385 5384 5384 5385 5386 5386 5385 5386
5407 5409 5407 5406 5403 5402 5402 5400 5399 5397 5395 5393 5391 5390 5389 5389 5388 5386 5384 5382 5382 5379 5376 5374 5371 5370 5368 5367 5366 5365 5365 5365 5367 5367 5366 5366 5366 5364 5365 5366 5367 5368 5368
5394 5394 5392 5391 5388 5388 5388 5386 5385 5382 5380 5378 5376 5374 5373 5372 5371 5370 5368 5366 5364 5359 5357 5355 5353 5351 5349 5348 5347 5347 5346 5345 5344 5347 5346 5346 5347 5346 5347 5348 5349 5350 5348
5380 5378 5375 5374 5374 5375 5374 5372 5370 5367 5365 5362 5360 5359 5358 5356 5355 5354 5352 5349 5347 5345 5343 5340 5335 5333 5332 5332 5329 5329 5328 5326 5325 5324 5328 5328 5327 5327 5330 5331 5331 5329 5329
5364 5362 5360 5360 5361 5360 5359 5358 5355 5353 5350 5348 5346 5345 5343 5341 5340 5338 5335 5333 5331 5328 5326 5325 5322 5319 5316 5315 5314 5313 5311 5310 5309 5306 5308 5310 5310 5312 5313 5313 5312 5311 5310
5350 5348 5348 5347 5346 5346 5345 5343 5340 5337 5335 5333 5332 5331 5329 5326 5325 5324 5321 5317 5315 5314 5312 5310 5308 5305 5303 5301 5300 5299 5293 5291 5291 5290 5286 5292 5293 5294 5294 5293 5292 5291 5289
5338 5336 5334 5333 5333 5332 5332 5329 5327 5324 5321 5319 5317 5316 5314 5311 5309 5307 5305 5300 5294 5296 5294 5292 5289 5286 5285 5283 5281 5280 5278 5271 5272 5269 5268 5269 5270 5269 5273 5275 5272 5268 5266